PBO Station Position Time Series. Reference Frame : NAM14
Format Version,1.1.0
4-character ID,AZPE
Station name,Keys_View
Begin Date, 2005-05-23
End Date, 2012-02-03
Release Date, 2019-08-30
Reference position, 33.5749420506 North Latitude, -112.2556133896 East Longitude, 316.15792 meters elevation,
Date, North (mm), East (mm), Vertical (mm), North Std. Deviation (mm), East Std. Deviation (mm),              Vertical Std. Deviation (mm), Quality,
2005-05-23,0.00, 0.00, 0.00, 2.00, 1.73, 7.63, repro,
2005-05-24,1.07, 1.84, -10.85, 1.99, 1.73, 7.60, repro,
2005-05-25,1.68, 1.15, -6.03, 2.00, 1.72, 7.63, repro,
2005-05-26,0.57, 0.28, -10.17, 2.01, 1.73, 7.70, repro,
2005-05-27,0.24, 0.25, -7.10, 2.02, 1.71, 7.67, repro,
2005-05-28,1.16, 0.63, -7.07, 2.07, 1.78, 7.80, repro,
2005-05-29,0.28, -0.99, -15.85, 2.00, 1.72, 7.66, repro,
2005-05-30,-0.46, -0.02, -7.18, 2.02, 1.73, 7.74, repro,
2005-05-31,0.29, 1.27, -6.94, 2.01, 1.72, 7.69, repro,
2005-06-01,-0.09, -0.41, -5.15, 1.98, 1.67, 7.53, repro,
2005-06-02,-0.22, 0.43, -3.60, 1.95, 1.65, 7.45, repro,
2005-06-03,0.26, 1.68, -6.13, 1.97, 1.68, 7.54, repro,
2005-06-04,-0.24, 0.47, -8.95, 1.97, 1.68, 7.52, repro,
2005-06-05,0.10, 0.33, 0.22, 1.97, 1.67, 7.53, repro,
2005-06-06,-1.16, -0.13, 0.22, 1.97, 1.66, 7.46, repro,
2005-06-07,-0.98, 0.22, -1.85, 1.96, 1.66, 7.45, repro,
2005-06-08,-1.00, -0.07, -2.83, 1.96, 1.67, 7.48, repro,
2005-06-09,0.07, 1.71, -7.90, 1.99, 1.70, 7.65, repro,
2005-06-10,-1.21, -0.54, -11.93, 2.03, 1.76, 7.89, repro,
2005-06-11,-0.17, -0.01, -7.52, 1.99, 1.73, 7.65, repro,
2005-06-12,1.13, 1.19, -8.31, 2.06, 1.76, 7.95, repro,
2005-06-13,-0.38, -0.25, -9.58, 2.06, 1.76, 7.94, repro,
2005-06-14,0.77, 0.19, -14.60, 2.00, 1.70, 7.66, repro,
2005-06-15,-1.08, 0.40, -10.17, 2.01, 1.71, 7.66, repro,
2005-06-16,0.40, 1.67, -17.81, 2.06, 1.69, 7.73, repro,
2005-06-17,0.22, -1.16, -8.28, 2.08, 1.72, 7.82, repro,
2005-06-18,-0.15, 0.17, -13.69, 2.00, 1.71, 7.64, repro,
2005-06-19,0.54, -0.17, -9.60, 1.98, 1.68, 7.59, repro,
2005-06-20,0.32, 0.59, -15.69, 1.98, 1.68, 7.52, repro,
2005-06-21,0.88, 1.20, -12.92, 1.96, 1.67, 7.46, repro,
2005-06-22,1.82, 0.92, -14.33, 1.98, 1.67, 7.50, repro,
2005-06-23,2.19, -0.91, -10.11, 2.03, 1.73, 7.71, repro,
2005-06-24,0.42, 0.08, -18.80, 2.04, 1.73, 7.87, repro,
2005-06-25,0.10, 0.12, -4.38, 2.01, 1.70, 7.63, repro,
2005-06-26,0.14, 2.44, -14.23, 2.02, 1.71, 7.69, repro,
2005-06-27,-0.30, 0.97, -9.58, 1.97, 1.68, 7.50, repro,
2005-06-28,0.57, 0.87, -6.20, 1.97, 1.69, 7.57, repro,
2005-06-29,0.33, 0.42, -7.07, 1.96, 1.66, 7.52, repro,
2005-06-30,0.01, 0.71, -2.84, 1.96, 1.66, 7.50, repro,
2005-07-01,0.16, 0.84, -1.90, 1.97, 1.65, 7.43, repro,
2005-07-02,0.58, -0.10, -5.19, 1.96, 1.66, 7.43, repro,
2005-07-03,0.16, 0.14, -2.01, 1.97, 1.67, 7.53, repro,
2005-07-04,0.68, 0.71, -3.42, 1.96, 1.66, 7.49, repro,
2005-07-05,1.33, 0.89, -9.46, 1.97, 1.66, 7.51, repro,
2005-07-06,1.85, 0.11, -5.82, 1.96, 1.65, 7.46, repro,
2005-07-07,-0.13, 0.45, -12.40, 1.96, 1.66, 7.49, repro,
2005-07-08,2.17, 0.85, -3.20, 1.96, 1.68, 7.48, repro,
2005-07-09,0.28, 0.46, -0.92, 2.01, 1.72, 7.65, repro,
2005-07-10,0.95, 0.25, -2.02, 1.98, 1.68, 7.58, repro,
2005-07-11,0.45, 0.13, -3.66, 2.00, 1.70, 7.63, repro,
2005-07-12,0.89, 1.05, -4.63, 1.97, 1.68, 7.57, repro,
2005-07-13,0.01, 1.53, -2.91, 1.96, 1.68, 7.56, repro,
2005-07-14,0.49, 1.61, 1.35, 1.99, 1.70, 7.65, repro,
2005-07-15,-1.88, 1.46, -1.35, 1.98, 1.69, 7.61, repro,
2005-07-16,-0.36, 1.21, -1.99, 1.96, 1.67, 7.51, repro,
2005-07-17,0.78, 0.88, -6.64, 1.98, 1.68, 7.58, repro,
2005-07-18,0.60, 2.44, -7.39, 1.98, 1.70, 7.56, repro,
2005-07-19,-0.19, 1.71, 6.64, 1.98, 1.70, 7.57, repro,
2005-07-20,-1.81, 2.80, -0.66, 1.97, 1.68, 7.49, repro,
2005-07-21,2.63, 3.12, -9.72, 2.03, 1.73, 7.89, repro,
2005-07-22,-0.26, 1.80, -5.98, 1.99, 1.70, 7.66, repro,
2005-07-23,0.13, 0.04, 1.56, 1.99, 1.69, 7.61, repro,
2005-07-24,-0.93, 2.48, -7.93, 2.29, 1.96, 8.83, repro,
2005-07-25,-0.01, 1.22, -3.84, 2.03, 1.78, 7.95, repro,
2005-07-26,1.47, 0.99, -6.58, 2.32, 1.98, 8.77, repro,
2005-07-27,1.20, 2.28, 4.70, 2.16, 1.97, 8.59, repro,
2005-07-28,-0.44, 1.81, -11.91, 2.05, 1.80, 7.92, repro,
2005-07-29,-0.02, 0.75, -5.75, 1.98, 1.71, 7.55, repro,
2005-07-30,-1.96, -1.64, -9.16, 2.00, 1.73, 7.65, repro,
2005-07-31,-1.50, 0.72, -11.89, 2.02, 1.76, 7.88, repro,
2005-08-01,-1.04, 0.25, -4.86, 2.05, 1.80, 8.03, repro,
2005-08-02,1.16, 0.39, -18.67, 2.01, 1.73, 7.71, repro,
2005-08-03,1.47, 0.35, -9.67, 2.27, 1.91, 8.60, repro,
2005-08-04,-1.39, 0.86, -10.18, 1.96, 1.67, 7.51, repro,
2005-08-05,0.84, 1.77, -23.47, 1.99, 1.69, 7.63, repro,
2005-08-06,-0.89, 0.74, -5.18, 2.02, 1.72, 7.76, repro,
2005-08-07,-1.98, 0.22, -13.90, 1.99, 1.67, 7.52, repro,
2005-08-08,1.27, 0.95, -8.20, 2.14, 1.84, 8.19, repro,
2005-08-09,-1.94, 0.87, -12.80, 2.00, 1.72, 7.56, repro,
2005-08-10,-0.41, 1.27, -6.71, 1.99, 1.68, 7.57, repro,
2005-08-11,-1.55, 0.73, -4.52, 2.08, 1.79, 7.78, repro,
2005-08-12,0.02, 2.01, -9.08, 2.10, 1.82, 7.94, repro,
2005-08-13,-0.74, 1.73, -14.70, 2.03, 1.76, 7.81, repro,
2005-08-14,-1.38, 3.25, -3.15, 2.29, 1.87, 8.45, repro,
2005-08-15,-0.19, 1.20, 2.39, 2.13, 1.77, 7.92, repro,
2005-08-16,-1.29, -0.03, -17.12, 2.05, 1.75, 7.88, repro,
2005-08-17,0.41, 1.55, -8.21, 2.05, 1.73, 7.66, repro,
2005-08-18,-1.46, 1.40, -14.94, 1.99, 1.67, 7.47, repro,
2005-08-19,1.94, 1.58, -9.57, 1.99, 1.67, 7.48, repro,
2005-08-20,-0.46, 2.10, -2.18, 2.07, 1.78, 7.89, repro,
2005-08-21,0.03, 3.31, -12.47, 1.99, 1.68, 7.53, repro,
2005-08-22,-0.51, 0.81, -7.21, 1.99, 1.68, 7.53, repro,
2005-08-23,1.78, -0.19, -8.85, 2.05, 1.76, 7.91, repro,
2005-08-24,-0.33, 0.90, -14.80, 1.98, 1.69, 7.56, repro,
2005-08-25,1.76, -0.21, -10.98, 1.99, 1.69, 7.52, repro,
2005-08-26,0.04, 0.36, -13.06, 2.02, 1.74, 7.86, repro,
2005-08-27,-0.07, 3.25, -2.17, 2.00, 1.68, 7.52, repro,
2005-08-28,0.51, 2.58, -8.14, 2.03, 1.73, 7.60, repro,
2005-08-29,1.52, 0.35, -7.23, 2.03, 1.72, 7.56, repro,
2005-08-30,-0.90, 1.38, -9.02, 1.99, 1.69, 7.53, repro,
2005-08-31,0.37, 2.48, -9.51, 2.00, 1.67, 7.55, repro,
2005-09-01,-1.00, 4.28, -5.91, 2.01, 1.70, 7.65, repro,
2005-09-02,0.14, 1.35, -8.88, 2.10, 1.82, 8.14, repro,
2005-09-03,0.14, 0.20, -7.16, 2.02, 1.71, 7.65, repro,
2005-09-04,-3.88, -7.33, 25.68, 6.36, 5.68, 25.81, repro,
2005-09-06,0.49, 2.18, -13.28, 2.01, 1.69, 7.65, repro,
2005-09-07,-2.10, 0.74, -11.56, 2.04, 1.69, 7.65, repro,
2005-09-08,2.42, 1.38, -16.27, 2.05, 1.70, 7.83, repro,
2005-09-09,1.67, 1.99, -18.08, 2.07, 1.69, 7.82, repro,
2005-09-10,0.10, 1.30, -14.67, 2.14, 1.75, 8.02, repro,
2005-09-12,0.76, 2.01, 0.48, 2.06, 1.71, 7.83, repro,
2005-09-13,0.37, 1.13, 1.33, 2.10, 1.77, 7.91, repro,
2005-09-14,0.19, 1.01, 0.41, 2.05, 1.73, 7.87, repro,
2005-09-15,-0.38, 0.63, -5.54, 2.05, 1.70, 7.80, repro,
2005-09-16,1.13, 1.60, -3.77, 2.04, 1.73, 7.86, repro,
2005-09-17,1.04, 0.54, -5.64, 1.94, 1.66, 7.49, repro,
2005-09-18,1.57, 0.96, -5.57, 1.94, 1.65, 7.42, repro,
2005-09-19,1.36, 2.00, -4.90, 2.02, 1.69, 7.75, repro,
2005-09-20,1.58, 1.58, -12.85, 1.97, 1.68, 7.59, repro,
2005-09-21,2.30, -0.27, -10.93, 1.99, 1.70, 7.64, repro,
2005-09-22,1.89, 1.99, -7.09, 1.98, 1.67, 7.63, repro,
2005-09-23,1.63, 2.47, -3.35, 1.95, 1.66, 7.50, repro,
2005-09-24,1.78, -0.17, -1.37, 1.98, 1.73, 7.69, repro,
2005-09-25,0.65, 1.71, -1.68, 1.99, 1.71, 7.66, repro,
2005-09-26,0.91, 2.38, -3.74, 2.01, 1.72, 7.77, repro,
2005-09-27,2.27, 2.42, -5.67, 2.00, 1.73, 7.75, repro,
2005-09-28,3.00, 2.24, -0.87, 2.02, 1.66, 7.65, repro,
2005-09-29,1.23, 1.38, -1.32, 2.03, 1.67, 7.71, repro,
2005-09-30,0.94, 1.51, -2.53, 2.03, 1.72, 7.67, repro,
2005-10-01,3.23, 1.04, -3.36, 1.98, 1.68, 7.59, repro,
2005-10-02,1.65, 1.38, -1.71, 1.99, 1.72, 7.76, repro,
2005-10-03,1.58, 2.64, 1.80, 1.97, 1.70, 7.58, repro,
2005-10-04,0.13, 0.27, 1.81, 1.99, 1.69, 7.62, repro,
2005-10-05,2.20, 0.43, -1.95, 2.02, 1.67, 7.77, repro,
2005-10-06,1.37, 2.29, -7.86, 1.99, 1.67, 7.55, repro,
2005-10-07,2.27, 2.60, -8.40, 2.00, 1.67, 7.62, repro,
2005-10-08,0.76, 2.26, -2.77, 1.99, 1.68, 7.60, repro,
2005-10-09,0.20, 1.26, -1.02, 1.98, 1.66, 7.52, repro,
2005-10-10,-0.43, 1.87, 2.99, 1.97, 1.66, 7.47, repro,
2005-10-11,-0.09, 1.34, -2.08, 2.00, 1.71, 7.64, repro,
2005-10-12,1.14, 1.97, -4.26, 2.02, 1.72, 7.74, repro,
2005-10-13,1.61, 1.91, -9.58, 2.04, 1.72, 7.62, repro,
2005-10-14,0.84, 2.24, 0.74, 1.96, 1.66, 7.48, repro,
2005-10-15,2.48, 3.48, -1.43, 2.05, 1.71, 7.90, repro,
2005-10-16,-0.48, 1.44, 0.06, 2.01, 1.71, 7.68, repro,
2005-10-17,-0.94, -0.39, -2.36, 2.04, 1.75, 7.91, repro,
2005-10-18,0.30, 2.28, -6.82, 2.12, 1.79, 8.35, repro,
2005-10-19,0.71, -0.02, -1.15, 2.05, 1.73, 7.91, repro,
2005-10-20,0.60, -0.35, 2.75, 2.12, 1.70, 8.09, repro,
2005-10-21,-0.54, 0.23, 0.32, 2.15, 1.83, 8.41, repro,
2005-10-22,-0.04, -0.17, -3.21, 1.98, 1.69, 7.60, repro,
2005-10-23,0.51, 0.21, 1.06, 2.00, 1.73, 7.72, repro,
2005-10-24,-0.48, 0.95, -8.49, 2.03, 1.81, 8.02, repro,
2005-10-25,0.93, 1.92, -0.45, 1.98, 1.72, 7.66, repro,
2005-10-26,0.05, 1.08, 5.50, 2.02, 1.80, 7.93, repro,
2005-10-27,0.59, 0.87, -1.26, 1.96, 1.68, 7.50, repro,
2005-10-28,-0.47, -0.96, -6.13, 1.96, 1.68, 7.55, repro,
2005-10-29,0.29, 0.38, -2.75, 1.99, 1.72, 7.78, repro,
2005-10-30,-0.28, 1.15, -4.28, 1.96, 1.67, 7.45, repro,
2005-10-31,1.48, 1.79, -11.94, 2.08, 1.77, 8.08, repro,
2005-11-01,1.34, 1.37, -3.36, 2.02, 1.78, 7.78, repro,
2005-11-02,0.41, 1.69, -12.23, 2.03, 1.85, 7.92, repro,
2005-11-03,-0.29, 1.14, 0.51, 1.99, 1.73, 7.72, repro,
2005-11-04,-0.87, 1.51, -0.26, 2.01, 1.78, 7.72, repro,
2005-11-05,0.38, -0.03, 1.22, 2.02, 1.79, 7.84, repro,
2005-11-06,-0.27, 0.54, 1.24, 2.03, 1.80, 7.87, repro,
2005-11-07,-0.03, 1.48, -4.61, 2.00, 1.78, 7.76, repro,
2005-11-08,-0.29, 0.50, -1.37, 2.02, 1.81, 7.89, repro,
2005-11-09,0.01, 1.23, -9.26, 2.04, 1.85, 7.96, repro,
2005-11-10,-0.45, 0.50, -2.71, 2.24, 2.02, 8.98, repro,
2005-11-11,0.29, 2.15, 0.14, 2.04, 1.82, 7.88, repro,
2005-11-12,-0.38, 0.56, -3.13, 1.94, 1.73, 7.53, repro,
2005-11-13,0.20, 2.44, -9.79, 1.96, 1.75, 7.51, repro,
2005-11-14,0.25, 0.59, -9.02, 1.99, 1.73, 7.71, repro,
2005-11-15,-0.08, 0.93, -7.81, 1.97, 1.68, 7.57, repro,
2005-11-16,0.09, 2.40, -8.92, 1.98, 1.74, 7.65, repro,
2005-11-17,0.30, 1.10, -8.84, 1.95, 1.68, 7.48, repro,
2005-11-18,-0.69, 1.13, -5.79, 1.93, 1.67, 7.45, repro,
2005-11-19,0.39, 0.35, -7.67, 1.96, 1.69, 7.55, repro,
2005-11-20,-0.91, -0.65, -11.78, 1.95, 1.68, 7.52, repro,
2005-11-21,-0.54, 1.02, -7.90, 2.06, 1.74, 8.04, repro,
2005-11-22,-0.94, 0.87, -4.75, 2.01, 1.79, 7.86, repro,
2005-11-23,-0.67, 0.57, -0.31, 1.94, 1.68, 7.50, repro,
2005-11-24,-0.87, 0.01, 0.97, 1.94, 1.68, 7.49, repro,
2005-11-25,-1.29, 0.33, 5.17, 2.62, 2.21, 10.26, repro,
2005-11-26,-0.81, 0.61, -1.02, 2.05, 1.80, 8.02, repro,
2005-11-27,-0.80, 1.43, 3.82, 2.00, 1.70, 7.69, repro,
2005-11-28,-1.98, 0.59, -0.15, 2.01, 1.75, 7.77, repro,
2005-11-29,-0.97, 1.04, 2.01, 1.98, 1.70, 7.62, repro,
2005-11-30,-1.71, 0.94, -4.90, 1.98, 1.71, 7.68, repro,
2005-12-01,-1.47, 0.17, -7.48, 2.01, 1.70, 7.72, repro,
2005-12-02,-1.55, 0.79, -6.24, 1.99, 1.70, 7.66, repro,
2005-12-03,-1.04, 1.03, 0.13, 1.98, 1.69, 7.61, repro,
2005-12-04,-1.41, 0.49, -6.30, 1.95, 1.66, 7.45, repro,
2005-12-05,-0.84, 0.77, -6.54, 1.97, 1.70, 7.65, repro,
2005-12-06,-2.67, 0.49, -8.63, 2.03, 1.71, 7.80, repro,
2005-12-07,-2.19, -0.19, -9.44, 2.02, 1.72, 7.77, repro,
2005-12-08,-0.78, 0.25, -8.51, 2.02, 1.72, 7.77, repro,
2005-12-09,-0.59, 0.89, -7.76, 1.98, 1.68, 7.60, repro,
2005-12-10,-0.95, 0.94, -2.68, 1.96, 1.68, 7.58, repro,
2005-12-11,-0.62, -0.09, 0.67, 1.94, 1.66, 7.46, repro,
2005-12-12,-0.88, -0.32, 0.17, 1.94, 1.65, 7.41, repro,
2005-12-13,-1.01, 1.08, -4.80, 2.06, 1.75, 7.85, repro,
2005-12-14,-0.64, -0.06, -2.34, 1.98, 1.69, 7.60, repro,
2005-12-15,-0.95, 1.26, -2.24, 2.03, 1.71, 7.72, repro,
2005-12-16,-0.10, -0.10, -0.54, 2.03, 1.69, 7.87, repro,
2005-12-17,-1.90, 0.56, -0.82, 1.99, 1.69, 7.67, repro,
2005-12-18,-1.22, 1.45, -12.03, 1.99, 1.77, 7.67, repro,
2005-12-19,-0.60, 0.51, -10.05, 2.08, 1.79, 7.91, repro,
2005-12-20,-0.13, 1.21, -8.88, 1.98, 1.76, 7.75, repro,
2005-12-21,0.59, 0.17, -9.20, 2.02, 1.83, 7.93, repro,
2005-12-22,-0.50, 1.05, 0.45, 2.02, 1.84, 7.88, repro,
2005-12-23,-0.75, 0.63, -1.25, 2.06, 1.79, 8.04, repro,
2005-12-24,-0.70, -0.72, -5.92, 2.16, 1.88, 8.58, repro,
2005-12-25,-0.57, -0.28, 2.34, 2.05, 1.78, 7.93, repro,
2005-12-26,-1.36, -0.23, 1.67, 2.01, 1.71, 7.81, repro,
2005-12-27,0.09, 0.08, 0.08, 2.09, 1.84, 8.14, repro,
2005-12-28,-1.22, -0.65, 0.93, 2.00, 1.70, 7.72, repro,
2005-12-29,-1.24, -1.54, -2.30, 2.26, 2.00, 9.12, repro,
2005-12-30,-0.51, -0.75, 2.96, 2.24, 1.91, 8.76, repro,
2005-12-31,-0.81, -0.49, 4.58, 2.29, 1.99, 8.99, repro,
2006-01-01,-0.77, 0.27, 6.07, 2.18, 1.87, 8.64, repro,
2006-01-02,-1.30, -0.21, 6.18, 2.04, 1.80, 8.07, repro,
2006-01-03,0.49, 0.48, -3.37, 2.29, 2.00, 9.13, repro,
2006-01-04,0.45, 0.28, -3.51, 2.26, 2.02, 9.03, repro,
2006-01-05,-1.87, 0.72, -4.85, 2.12, 1.82, 8.07, repro,
2006-01-06,0.09, -0.37, -3.09, 2.20, 1.90, 8.72, repro,
2006-01-07,-0.17, 1.31, 0.90, 2.09, 1.85, 8.19, repro,
2006-01-08,-2.27, -0.50, 8.19, 2.08, 1.85, 8.00, repro,
2006-01-09,-1.42, -0.46, -0.02, 2.18, 1.88, 8.40, repro,
2006-01-10,-1.33, -0.52, -2.93, 2.18, 1.90, 8.36, repro,
2006-01-11,-1.40, 0.64, 3.39, 2.12, 1.83, 8.24, repro,
2006-01-12,-0.37, 0.21, 1.07, 2.10, 1.86, 8.21, repro,
2006-01-13,-1.32, 0.71, 2.71, 2.26, 1.98, 9.02, repro,
2006-01-14,-1.94, 0.63, 0.04, 2.06, 1.74, 7.98, repro,
2006-01-15,-0.71, -0.52, 1.76, 2.02, 1.71, 7.85, repro,
2006-01-16,-2.14, -0.27, -2.90, 2.06, 1.81, 8.06, repro,
2006-01-17,-2.11, -0.25, 2.77, 2.06, 1.76, 7.90, repro,
2006-01-18,-0.90, 0.10, 3.46, 2.02, 1.72, 7.83, repro,
2006-01-19,-1.89, 0.25, -1.18, 2.05, 1.74, 8.01, repro,
2006-01-20,-1.86, -0.38, -5.13, 2.04, 1.74, 7.98, repro,
2006-01-21,-2.02, 0.46, -4.79, 2.01, 1.69, 7.79, repro,
2006-01-22,-1.54, -0.63, -4.89, 2.01, 1.70, 7.83, repro,
2006-01-23,-1.79, -0.19, -3.89, 2.00, 1.70, 7.83, repro,
2006-01-24,-1.50, 0.27, 0.59, 2.02, 1.71, 7.89, repro,
2006-01-25,-1.25, -0.23, 0.10, 1.94, 1.68, 7.57, repro,
2006-01-26,-1.97, 0.47, -7.08, 1.93, 1.67, 7.54, repro,
2006-01-27,-2.18, 0.11, -2.20, 1.94, 1.67, 7.55, repro,
2006-01-28,-3.09, 0.25, -5.03, 2.02, 1.74, 7.92, repro,
2006-01-29,-2.09, 0.01, -9.93, 1.94, 1.67, 7.58, repro,
2006-01-30,-1.95, 0.61, -2.84, 1.94, 1.68, 7.62, repro,
2006-01-31,-1.81, 1.03, -1.49, 1.99, 1.71, 7.71, repro,
2006-02-01,-2.63, -0.56, 3.54, 1.95, 1.67, 7.62, repro,
2006-02-02,-1.64, -0.84, -3.72, 1.94, 1.68, 7.59, repro,
2006-02-03,-2.30, 0.06, -7.58, 1.97, 1.69, 7.74, repro,
2006-02-04,-1.75, 0.61, -6.34, 1.96, 1.68, 7.71, repro,
2006-02-05,-2.05, 0.69, -6.34, 1.95, 1.66, 7.63, repro,
2006-02-06,-1.88, 0.56, -11.73, 1.95, 1.67, 7.65, repro,
2006-02-07,-1.83, 0.37, -14.12, 1.95, 1.67, 7.67, repro,
2006-02-08,-1.85, 0.53, -16.01, 1.94, 1.66, 7.63, repro,
2006-02-09,-1.50, 2.07, -11.98, 2.02, 1.69, 7.94, repro,
2006-02-10,-2.43, -0.17, -9.26, 2.10, 1.69, 8.11, repro,
2006-02-11,-2.30, 0.21, -12.69, 1.96, 1.66, 7.64, repro,
2006-02-12,-2.12, 0.23, -14.79, 1.96, 1.67, 7.76, repro,
2006-02-13,-1.93, -0.40, -10.52, 1.96, 1.67, 7.76, repro,
2006-02-14,-2.27, 0.47, -6.08, 1.95, 1.67, 7.65, repro,
2006-02-15,-1.96, 1.86, -7.27, 1.95, 1.67, 7.65, repro,
2006-02-16,-2.15, 2.58, -3.01, 1.95, 1.68, 7.68, repro,
2006-02-17,-2.24, 2.29, -8.50, 1.95, 1.68, 7.72, repro,
2006-02-18,-1.75, 0.03, -8.96, 1.97, 1.70, 7.77, repro,
2006-02-19,-1.32, 0.46, -9.48, 1.95, 1.68, 7.65, repro,
2006-02-20,-1.71, 0.58, -4.52, 1.94, 1.68, 7.59, repro,
2006-02-21,-1.55, 1.45, -1.02, 1.95, 1.69, 7.64, repro,
2006-02-22,-2.30, 1.03, 4.88, 1.94, 1.69, 7.58, repro,
2006-02-23,-1.67, 0.09, 1.50, 1.94, 1.69, 7.58, repro,
2006-02-24,-2.05, 0.39, -3.50, 1.96, 1.70, 7.62, repro,
2006-02-25,-1.21, 1.16, -5.49, 1.92, 1.69, 7.50, repro,
2006-02-26,-0.61, 2.34, -9.54, 1.93, 1.69, 7.55, repro,
2006-02-27,-1.72, 0.96, -2.38, 1.94, 1.70, 7.56, repro,
2006-02-28,-2.18, 0.31, 1.37, 1.97, 1.72, 7.60, repro,
2006-03-01,-1.76, -1.66, -7.02, 2.04, 1.82, 7.88, repro,
2006-03-02,-1.21, 0.51, -6.10, 1.94, 1.71, 7.55, repro,
2006-03-03,-1.42, 0.94, -0.35, 1.99, 1.73, 7.76, repro,
2006-03-04,-1.45, 1.38, -0.61, 1.92, 1.70, 7.53, repro,
2006-03-05,-2.89, 0.71, 1.71, 1.92, 1.70, 7.54, repro,
2006-03-06,-2.05, 1.40, 1.11, 1.93, 1.70, 7.53, repro,
2006-03-07,-0.84, 0.33, 1.23, 1.92, 1.71, 7.57, repro,
2006-03-08,-0.65, 1.27, 7.31, 1.93, 1.71, 7.59, repro,
2006-03-09,-1.95, -0.06, 14.36, 1.92, 1.70, 7.50, repro,
2006-03-10,-2.17, 3.68, 9.44, 1.94, 1.74, 7.62, repro,
2006-03-11,-1.18, 3.08, 11.69, 2.50, 2.21, 9.65, repro,
2006-03-13,-0.92, -0.59, 2.07, 2.04, 1.80, 7.80, repro,
2006-03-14,-1.86, -0.51, 2.49, 1.95, 1.76, 7.64, repro,
2006-03-15,-1.08, 0.93, 2.62, 1.94, 1.77, 7.60, repro,
2006-03-16,-1.22, -0.73, -4.26, 2.01, 1.80, 7.80, repro,
2006-03-17,-2.07, -0.69, 4.14, 2.01, 1.81, 7.81, repro,
2006-03-18,-0.46, -0.68, 7.78, 1.96, 1.78, 7.69, repro,
2006-03-19,-2.34, 0.33, 2.03, 1.95, 1.76, 7.58, repro,
2006-03-20,-2.68, -0.70, 6.03, 1.93, 1.75, 7.49, repro,
2006-03-21,-2.51, -0.79, 1.46, 1.94, 1.76, 7.53, repro,
2006-03-22,-2.68, -1.44, 4.74, 1.96, 1.77, 7.60, repro,
2006-03-23,-1.87, -0.80, -5.64, 2.05, 1.84, 8.13, repro,
2006-03-24,-1.07, -0.41, -3.00, 2.03, 1.79, 7.92, repro,
2006-03-25,-2.19, -0.81, 6.46, 2.01, 1.78, 7.86, repro,
2006-03-26,0.20, -2.35, 3.53, 2.01, 1.78, 7.84, repro,
2006-03-27,0.61, -0.36, 3.76, 2.01, 1.79, 7.89, repro,
2006-03-28,-1.33, -1.23, 1.23, 1.95, 1.75, 7.76, repro,
2006-03-29,-1.35, -2.33, 4.06, 1.92, 1.75, 7.67, repro,
2006-03-30,-1.86, -1.15, 0.74, 1.91, 1.73, 7.65, repro,
2006-03-31,-0.46, 0.38, 4.18, 1.89, 1.72, 7.56, repro,
2006-04-01,-1.95, 0.76, -0.73, 1.91, 1.72, 7.61, repro,
2006-04-02,-1.23, -1.19, 3.27, 1.93, 1.76, 7.83, repro,
2006-04-03,-0.85, -1.06, 4.14, 1.90, 1.72, 7.63, repro,
2006-04-04,1.15, -0.45, 3.13, 1.91, 1.73, 7.68, repro,
2006-04-05,-2.09, -2.03, 8.57, 1.93, 1.77, 7.87, repro,
2006-04-06,-1.86, -1.35, 4.99, 1.91, 1.78, 7.72, repro,
2006-04-07,-0.75, -2.04, 9.35, 1.97, 1.80, 7.83, repro,
2006-04-08,-0.50, -1.82, 6.25, 1.97, 1.74, 7.75, repro,
2006-04-09,-0.59, -2.04, 2.45, 1.92, 1.72, 7.65, repro,
2006-04-10,0.02, -1.78, 1.05, 1.91, 1.73, 7.68, repro,
2006-04-11,-1.59, -1.01, 2.63, 1.97, 1.72, 8.00, repro,
2006-04-12,-0.54, -0.74, 2.41, 1.96, 1.72, 7.95, repro,
2006-04-13,0.58, -2.26, 5.95, 1.91, 1.71, 7.57, repro,
2006-04-14,0.46, -1.27, 6.65, 1.98, 1.77, 7.86, repro,
2006-04-15,-0.48, -1.30, 4.20, 1.98, 1.75, 7.90, repro,
2006-04-16,-1.87, -0.91, 6.65, 1.92, 1.72, 7.62, repro,
2006-04-17,-2.60, -1.31, 5.63, 1.92, 1.76, 7.85, repro,
2006-04-18,0.04, -1.80, 4.27, 1.92, 1.75, 7.82, repro,
2006-04-19,0.31, -2.65, 6.24, 1.91, 1.70, 7.59, repro,
2006-04-20,-0.72, -2.59, 4.95, 1.98, 1.80, 8.10, repro,
2006-04-21,-0.68, -1.25, 5.44, 1.92, 1.72, 7.67, repro,
2006-04-22,-0.81, -2.25, 3.81, 1.90, 1.72, 7.64, repro,
2006-04-23,-1.21, -0.59, 8.76, 1.92, 1.78, 7.79, repro,
2006-04-24,-0.98, -2.59, 7.06, 1.92, 1.76, 7.72, repro,
2006-04-25,-1.18, -2.38, 4.06, 1.95, 1.78, 7.85, repro,
2006-04-26,-0.97, -1.95, 4.30, 1.94, 1.78, 7.89, repro,
2006-04-27,-1.08, -1.63, 1.52, 1.97, 1.75, 7.77, repro,
2006-04-28,-0.36, -1.68, 6.06, 1.96, 1.74, 7.75, repro,
2006-04-29,-1.19, -2.25, 2.57, 1.90, 1.73, 7.65, repro,
2006-04-30,0.22, -1.86, 5.16, 1.92, 1.71, 7.60, repro,
2006-05-01,0.75, -1.51, 0.71, 1.92, 1.72, 7.65, repro,
2006-05-02,0.56, -1.47, 5.48, 1.91, 1.72, 7.64, repro,
2006-05-03,0.14, -1.75, 3.68, 1.90, 1.72, 7.67, repro,
2006-05-04,0.01, -1.40, 4.24, 1.91, 1.72, 7.66, repro,
2006-05-05,1.18, -0.63, 3.95, 1.91, 1.72, 7.65, repro,
2006-05-06,1.40, -1.36, -0.89, 1.91, 1.71, 7.59, repro,
2006-05-07,-0.29, -1.81, 4.10, 1.92, 1.71, 7.65, repro,
2006-05-08,1.27, -1.15, 1.34, 1.91, 1.71, 7.66, repro,
2006-05-09,0.16, -1.86, 8.79, 1.98, 1.72, 7.89, repro,
2006-05-10,0.46, -1.62, 9.38, 1.91, 1.71, 7.63, repro,
2006-05-11,1.41, -1.45, 3.33, 1.92, 1.73, 7.68, repro,
2006-05-12,0.91, -1.54, 3.56, 1.92, 1.71, 7.66, repro,
2006-05-13,0.56, -2.18, 2.60, 1.94, 1.74, 7.76, repro,
2006-05-14,0.46, -0.82, 2.80, 1.96, 1.77, 7.97, repro,
2006-05-15,1.60, -1.25, 0.57, 1.92, 1.71, 7.71, repro,
2006-05-16,1.88, -3.30, -0.40, 1.96, 1.77, 7.91, repro,
2006-05-17,0.27, -1.33, -0.58, 1.98, 1.77, 7.91, repro,
2006-05-18,-0.44, -1.00, 4.59, 1.94, 1.72, 7.81, repro,
2006-05-19,0.13, -1.19, 7.38, 2.04, 1.74, 8.10, repro,
2006-05-20,-0.48, -2.17, 7.71, 1.98, 1.70, 7.81, repro,
2006-05-21,1.05, -2.59, 6.38, 2.00, 1.72, 7.94, repro,
2006-05-22,1.83, -2.10, 6.66, 2.03, 1.76, 8.17, repro,
2006-05-23,0.13, -2.49, 3.86, 2.00, 1.72, 7.94, repro,
2006-05-24,-0.87, -1.44, 3.97, 2.00, 1.72, 7.95, repro,
2006-05-25,-0.10, -0.76, 3.85, 2.11, 1.76, 8.39, repro,
2006-05-26,0.34, -1.40, 10.15, 2.08, 1.76, 8.29, repro,
2006-05-27,-0.32, -1.27, 7.18, 2.02, 1.74, 8.02, repro,
2006-05-28,2.02, -1.90, 8.51, 2.01, 1.74, 8.02, repro,
2006-05-29,-0.58, -1.25, 9.31, 2.00, 1.73, 7.93, repro,
2006-05-30,-0.42, -2.01, 4.85, 2.11, 1.84, 8.53, repro,
2006-05-31,-0.05, -1.36, 2.81, 2.08, 1.79, 8.30, repro,
2006-06-01,0.84, -4.52, 5.20, 3.84, 3.73, 16.09, repro,
2006-06-07,-0.59, 0.00, 5.20, 2.10, 1.83, 8.37, repro,
2006-06-08,1.41, -0.59, 2.56, 2.03, 1.77, 8.13, repro,
2006-06-09,-0.97, -0.28, 8.95, 2.08, 1.78, 8.25, repro,
2006-06-10,-0.53, -4.22, 13.71, 2.34, 2.14, 9.38, repro,
2006-06-11,-0.71, -1.35, 9.47, 2.01, 1.74, 7.99, repro,
2006-06-12,0.32, -1.54, 12.18, 2.02, 1.75, 8.03, repro,
2006-06-13,0.09, -1.38, 8.39, 2.13, 1.84, 8.48, repro,
2006-06-14,1.60, -1.22, 5.69, 2.02, 1.75, 8.05, repro,
2006-06-15,0.39, -1.76, 13.52, 2.00, 1.73, 7.92, repro,
2006-06-16,1.50, -9.26, 31.94, 6.07, 6.13, 23.67, repro,
2006-06-17,5.18, 0.47, 13.28, 4.01, 3.99, 16.04, repro,
2006-06-18,2.91, -2.16, 5.57, 3.70, 3.56, 15.70, repro,
2006-06-19,0.89, -0.47, 5.02, 2.32, 1.99, 9.44, repro,
2006-06-20,-31.10, -96.38, 39.98, 81.66, 554.60, 302.08, repro,
2006-06-21,-68.37, 19.26, 245.19, 13.32, 18.26, 81.52, repro,
2006-06-22,-1.15, -1.59, 13.05, 2.34, 1.98, 9.30, repro,
2006-06-23,4.68, 7.37, -7.23, 4.99, 5.13, 21.50, repro,
2006-06-24,1.29, -0.83, 3.18, 2.45, 2.03, 9.94, repro,
2006-06-25,2.19, 0.91, -5.28, 2.38, 2.00, 9.59, repro,
2006-06-26,1.07, -0.28, 6.03, 2.31, 1.95, 9.25, repro,
2006-06-27,1.99, -2.00, 9.77, 3.18, 2.92, 13.20, repro,
2006-06-28,0.72, -7.50, -34.74, 8.08, 8.79, 40.23, repro,
2006-06-29,0.97, -1.96, -6.47, 2.32, 2.05, 9.45, repro,
2006-06-30,4.22, 6.25, -10.07, 5.24, 5.52, 22.85, repro,
2006-07-01,1.13, 0.53, 6.20, 2.34, 1.93, 9.42, repro,
2006-07-02,-1.83, 6.04, -5.62, 3.20, 2.95, 14.14, repro,
2006-07-03,0.58, -1.76, -8.46, 2.17, 1.80, 8.78, repro,
2006-07-04,0.60, 0.80, -1.09, 2.02, 1.75, 8.16, repro,
2006-07-05,0.36, -2.45, 6.38, 2.05, 1.79, 8.21, repro,
2006-07-07,1.07, -0.98, -0.73, 1.99, 1.74, 8.06, repro,
2006-07-08,0.30, -1.04, -5.46, 2.01, 1.74, 8.07, repro,
2006-07-09,1.49, -2.89, 3.49, 2.00, 1.73, 8.05, repro,
2006-07-10,-1.01, -1.58, 0.79, 2.08, 1.82, 8.22, repro,
2006-07-11,0.80, -0.79, 5.37, 2.02, 1.74, 8.10, repro,
2006-07-12,-1.41, 0.67, -1.39, 1.98, 1.72, 7.98, repro,
2006-07-13,-0.39, -0.20, 2.17, 1.98, 1.74, 8.05, repro,
2006-07-14,1.01, 0.14, -7.11, 2.01, 1.73, 8.14, repro,
2006-07-15,-0.54, -0.60, -1.28, 2.01, 1.73, 8.06, repro,
2006-07-16,1.98, -2.00, 1.44, 2.02, 1.74, 8.13, repro,
2006-07-17,-0.40, -0.16, -5.43, 2.09, 1.83, 8.29, repro,
2006-07-18,-0.70, 0.75, 8.65, 1.97, 1.76, 8.01, repro,
2006-07-19,0.47, 1.61, 7.39, 1.94, 1.72, 7.79, repro,
2006-07-20,0.07, -0.57, 6.84, 1.94, 1.72, 7.71, repro,
2006-07-21,0.24, -1.26, -5.98, 1.96, 1.77, 7.93, repro,
2006-07-22,2.65, -1.75, -0.53, 1.94, 1.72, 7.67, repro,
2006-07-23,1.12, 0.33, 4.66, 1.93, 1.72, 7.66, repro,
2006-07-24,1.79, -0.29, 10.00, 2.06, 1.81, 8.14, repro,
2006-07-25,2.43, 0.46, 10.55, 2.00, 1.76, 7.83, repro,
2006-07-26,1.81, -0.45, -11.64, 2.03, 1.82, 8.02, repro,
2006-07-27,0.51, -0.96, 1.32, 1.93, 1.73, 7.70, repro,